Zurück zum Katalog

STARLINK-5515

AktivKommunikationVLEO
NORAD 56884·PAYLOAD·🇺🇸 United States

Gestartet Jun 12, 2023 von Cape Canaveral Space Force Station

Loading…

Nächste Überflüge (nächste 24 Stunden)

TLE

AktuellSource: CelesTrak SupGP

Epoche: Sep 15, 2026, 02:45 UTC

1 56884C 23083J   26258.11506944 -.00000645  00000+0 -23338-4 0  2587
2 56884  43.0001  95.0472 0001497 250.9973 154.8815 15.27587601    19

Verfolge STARLINK-5515 in Echtzeit mit AllMySat

Download on the App Store